Location: Baumgarten
(49.0970°N, 12.7493°E)
Time: 02:49:57
(UTC+00:00)

Meteor 2-6 Rocket - Pass Details

Date: 05 July 2020
Orbit: 804 x 916 km, 81.3° (Epoch: 04 August)

Event Time Altitude Azimuth Distance (km) Brightness Sun altitude
Rises 23:26:55 0° 349° (NNW) 3,394 8.8 -18.2°
Reaches altitude 10° 23:29:22 10° 351° (N) 2,442 7.8 -18.2°
Maximum altitude 23:34:53 75° 77° (ENE) 847 4.2 -18.1°
Enters shadow 23:37:48 28° 158° (SSE) 1,480 5.0 -18.0°
